Miscellaneous Local Product
Issued by NWS Hastings, NE

Home | Current Version | Previous Version | Graphics & Text | Print | Product List | Glossary On
Versions: 1 2 3 4 5 6 7 8 9 10 11 12 13 14 15 16 17 18 19 20 21 22 23 24 25 26 27 28 29 30 31 32 33 34 35 36 37 38 39 40 41 42 43 44 45 46 47 48 49 50
000
AXUS43 KGID 260602
MISGRI

GID CWA HOURLY WEATHER ROUNDUP
NATIONAL WEATHER SERVICE HASTINGS NE
100 AM CDT SAT JUL 26 2014

NOTE: "FAIR" INDICATES FEW OR NO CLOUDS BELOW 12,000 FEET WITH NO
SIGNIFICANT WEATHER AND/OR OBSTRUCTIONS TO VISIBILITY.

...SOUTH CENTRAL NEBRASKA...

CITY           SKY/WX    TMP DP  RH WIND       PRES   REMARKS
GRAND ISLAND   MOCLDY    77  72  84 CALM      29.85S
HASTINGS       PTCLDY    73  68  84 NE6       29.85R
KEARNEY        PTCLDY    73  66  78 NW6       29.86F
ORD            CLOUDY    73  72  96 SE3       29.81F
YORK           PTCLDY    73  73 100 N3        29.83S FOG
AURORA         PTCLDY    74  74 100 CALM      29.84F FOG
LEXINGTON      MOCLDY    73  69  88 SE3       29.86F
HOLDREGE       PTCLDY    72  68  88 N8        29.87R
HEBRON         PTCLDY    74  71  88 CALM      29.81S

...NEBRASKA PANHANDLE...

CITY           SKY/WX    TMP DP  RH WIND       PRES   REMARKS
CHADRON        CLEAR     79  54  41 SW15      29.82S
ALLIANCE       MOCLDY    69  60  73 S10       29.92S
SCOTTSBLUFF    MOCLDY    69  59  70 E9        29.93S
SIDNEY         PTCLDY    69  57  65 SW9       30.00F

...WESTERN AND NORTH CENTRAL NEBRASKA...

CITY           SKY/WX    TMP DP  RH WIND       PRES   REMARKS
VALENTINE      PTCLDY    74  65  73 E10       29.85F
AINSWORTH      CLEAR     71  69  94 E8        29.86F
ONEILL         MOCLDY    73  67  82 NE9       29.86F
BROKEN BOW     CLOUDY    72  68  87 CALM      29.84F
IMPERIAL       PTCLDY    71  65  81 CALM      29.92F
NORTH PLATTE   CLOUDY    73  68  84 SE3       29.86F
MCCOOK         CLEAR     72  68  87 SW6       29.90R

...EASTERN NEBRASKA...

CITY           SKY/WX    TMP DP  RH WIND       PRES   REMARKS
NORFOLK        MOCLDY    76  72  87 NE5       29.84S
SO SIOUX CITY  PTCLDY    73  70  90 CALM      29.83R
COLUMBUS       MOCLDY    63 N/A N/A CALM      29.83S
ALBION         CLOUDY    75  72  88 CALM      29.84F
OMAHA EPPLEY   MOCLDY    77  71  82 NE5       29.80R
OFFUTT AFB     MOCLDY    76  76 100 NE6       29.79R
MILLARD        PTCLDY    80  74  83 CALM      29.79S
LINCOLN        CLEAR     78  74  87 N6        29.80S
NEBRASKA CITY  CLEAR     77  77 100 N3        29.79S FOG
BEATRICE       CLEAR     75  73  91 CALM      29.80S
FALLS CITY     CLEAR     82  71  69 SW7       29.77S

...NORTHERN KANSAS...

CITY           SKY/WX    TMP DP  RH WIND       PRES   REMARKS
GOODLAND       RAIN      73  66  78 S14       30.04R
HILL CITY      PTCLDY    77  69  76 CALM      29.85S
NORTON         CLEAR     72  64  78 CALM      29.85R
PHILLIPSBURG   CLEAR     75  68  78 CALM      29.81F
SMITH CENTER   CLEAR     75  70  83 NE9       29.81F
HAYS           CLEAR     79  68  69 SE6       29.83F
RUSSELL        CLEAR     78  70  76 SW6       29.80F
CONCORDIA      CLEAR     77  74  90 CALM      29.79S
SALINA         PTCLDY    87  59  38 S15       29.80R
TOPEKA         PTCLDY    86  74  67 S10G21    29.80S HX  94



USA.gov is the U.S. government's official web portal to all federal, state and local government web resources and services.